Other Public Products
Issued by NWS Grand Forks, ND

Home | Current Version | Previous Version | Graphics & Text | Print | Product List | Glossary On
Versions: 1 2 3 4 5 6 7 8 9 10 11 12 13 14 15 16 17 18 19 20 21 22 23 24 25 26 27 28 29 30 31 32 33 34 35 36 37 38 39 40 41 42 43 44 45 46 47 48 49 50
000
FPUS83 KFGF 200631
OPUFGF
PRAIRIE TO PINES WEATHER ROUNDUP
NATIONAL WEATHER SERVICE EASTERN NORTH DAKOTA/GRAND FORKS ND
100 AM CDT WED AUG 20 2014

 **SATELLITE DATA USED TO AUGMENT SKY COVER AT AUTOMATED STATIONS**
 *****  WEATHER ACROSS EASTERN NORTH DAKOTA  *****

CITY           SKY/WX    TMP DP  RH WIND       PRES   REMARKS
GRAND FORKS    FAIR      66  62  87 SE5       29.76R
6HR MIN TEMP:  66; 6HR MAX TEMP:  80;

GRAND FORKS AF FAIR      66  66  99 SE5       29.77R
GRAND CITY NWS   N/A     61 N/A N/A SE5         N/A
BUXTON           N/A     67  66  97 E3          N/A
DEVILS LAKE    FAIR      70  63  78 S10       29.74S
6HR MIN TEMP:  70; 6HR MAX TEMP:  81;

FARGO          FAIR      67  63  87 SE6       29.76F
6HR MIN TEMP:  67; 6HR MAX TEMP:  80;

WAHPETON ARPT  FAIR      64  61  88 S6        29.79S
$$

 *****  WEATHER ACROSS CENTRAL AND WESTERN NORTH DAKOTA  *****

CITY           SKY/WX    TMP DP  RH WIND       PRES   REMARKS
JAMESTOWN      FAIR      66  63  90 SE5       29.77R
6HR MIN TEMP:  66; 6HR MAX TEMP:  78;

BISMARCK       PTCLDY    69  61  75 E5        29.73S
6HR MIN TEMP:  68; 6HR MAX TEMP:  85;

MINOT          FAIR      65  60  84 SE6       29.69F
6HR MIN TEMP:  65; 6HR MAX TEMP:  84;

MINOT AFB      FAIR      64  63  99 SE6       29.69S
6HR MIN TEMP:  63; 6HR MAX TEMP:  83;

GARRISON         N/A     68  64  87 SE6       29.71S
6HR MIN TEMP:  67; 6HR MAX TEMP:  82;

WILLISTON      MOCLDY    75  60  59 SE6       29.64S
6HR MIN TEMP:  74; 6HR MAX TEMP:  90;

DICKINSON      PTCLDY    67  58  72 S8        29.69S
6HR MIN TEMP:  67; 6HR MAX TEMP:  83;

HETTINGER      CLEAR     67  57  70 SE6       29.73S
6HR MIN TEMP:  67; 6HR MAX TEMP:  85;

$$

 *****  OTHER OBSERVATIONS NORTHEAST NORTH DAKOTA  *****

CITY           SKY/WX    TMP DP  RH WIND       PRES   REMARKS
WALHALLA         N/A     68  68 100 SE5         N/A
LANGDON        FAIR      64  63  94 SE8       29.77S
CAVALIER       MOCLDY    66  63  88 S7        29.76S
GRAFTON        FAIR      64  63  94 SE7       29.76S
CANDO          FAIR      66  64  94 SE7       29.75S
FORT TOTTEN    NOT AVBL
ROLLA          CLOUDY    57  57 100 S6        29.76S
RUGBY          NOT AVBL
 ***** THE ABOVE OBSERVATIONS ARE NON NWS ARE NOT QUALITY
        CONTROLLED AND MAY MIS-REPORT RAIN FOR SNOW...
$$

 *****  OTHER OBSERVATIONS SOUTHEAST NORTH DAKOTA *****

CITY           SKY/WX    TMP DP  RH WIND       PRES   REMARKS
COOPERSTOWN    NOT AVBL
VALLEY CITY    FAIR      68  68 100 S7        29.78S
OAKES          NOT AVBL
GWINNER        CLEAR     66  66 100 S5        29.79S
SHEYENNE NWR     N/A     63  62  96 E2        29.95S
BUFFALO          N/A     66  62  87 SE7         N/A
WYNDMERE       NOT AVBL
 ***** THE ABOVE OBSERVATIONS ARE NON NWS ARE NOT QUALITY
       CONTROLLED AND MAY MIS-REPORT RAIN FOR SNOW...
$$

  *****  WEATHER ACROSS NORTHERN MINNESOTA  *****

CITY           SKY/WX    TMP DP  RH WIND       PRES   REMARKS
FLAG ISLAND    FAIR      70  63  78 S9        29.80S
WARROAD        MOCLDY    64  61  88 SE5       29.82S
ROSEAU         MOCLDY    64  59  82 SE6       29.80S
HALLOCK        FAIR      66  63  88 SE8       29.76S
THF RVR FALLS  FAIR      63  61  94 SE6       29.80S
6HR MIN TEMP:  63; 6HR MAX TEMP:  75;

HALSTAD          N/A     62  61  95 SE6         N/A
FOSSTON        FAIR      61  55  82 SE5       29.82R
BAUDETTE       FAIR      62  59  90 E3        29.82R
6HR MIN TEMP:  61; 6HR MAX TEMP:  71;

WASKISH        FAIR      57  57 100 CALM      29.82S FOG
CROOKSTON      FAIR      64  61  88 SE7       29.79R
$$
  *****  WEATHER ACROSS CENTRAL AND WEST MINNESOTA  *****

CITY           SKY/WX    TMP DP  RH WIND       PRES   REMARKS
BEMIDJI        FAIR      63  61  94 SE5       29.82S
PARK RAPIDS    FAIR      59  58  96 CALM      29.82R
6HR MIN TEMP:  61; 6HR MAX TEMP:  76;

WADENA         FAIR      61  57  88 CALM      29.81F FOG
DETROIT LAKES  FAIR      66  61  82 SE3       29.82S
MOORHEAD       FAIR      66  66 100 CALM      29.78S
FERGUS FALLS   FAIR      66  61  82 CALM      29.79R
ELBOW LAKE     FAIR      66  63  89 SE3       29.81R
6HR MIN TEMP:  65; 6HR MAX TEMP:  77;

MORRIS MN      FAIR      64  63  94 SE3       29.80R
STAPLES        MOCLDY    61  61 100 CALM      29.82S
WHEATON        FAIR      63  61  94 SE8       29.81R
$$
  *****  WEATHER ELSEWHERE ACROSS MINNESOTA  *****

CITY           SKY/WX    TMP DP  RH WIND       PRES   REMARKS
DULUTH         CLOUDY    61  58  90 SE5       29.83R
6HR MIN TEMP:  61; 6HR MAX TEMP:  68;

INTRNTL FALLS  FAIR      51  51 100 CALM      29.83R FOG
6HR MIN TEMP:  50; 6HR MAX TEMP:  70;

ELY            CLOUDY    61  59  94 CALM      29.83S
CLOQUET        CLOUDY    59  57  94 CALM      29.83S
BRAINERD       FAIR      61  61 100 CALM      29.82S
6HR MIN TEMP:  60; 6HR MAX TEMP:  73;

HIBBING        CLOUDY    58  56  93 CALM      29.84R FOG
6HR MIN TEMP:  57; 6HR MAX TEMP:  69;

ALEXANDRIA     FAIR      64  61  90 CALM      29.82F
6HR MIN TEMP:  64; 6HR MAX TEMP:  77;

SAINT CLOUD    FAIR      64  61  90 CALM      29.81R
6HR MIN TEMP:  64; 6HR MAX TEMP:  81;

MINNEAPOLIS    FAIR      70  65  84 CALM      29.79S
6HR MIN TEMP:  70; 6HR MAX TEMP:  79;

$$

  *****  WEATHER ACROSS SOUTH DAKOTA  *****

CITY           SKY/WX    TMP DP  RH WIND       PRES   REMARKS
SIOUX FALLS    FAIR      67  63  87 CALM      29.82R
6HR MIN TEMP:  67; 6HR MAX TEMP:  83;

BROOKINGS      NOT AVBL
WATERTOWN      FAIR      66  61  84 S3        29.82R
6HR MIN TEMP:  65; 6HR MAX TEMP:  79;

HURON          PTCLDY    67  62  84 SE8       29.76F
6HR MIN TEMP:  67; 6HR MAX TEMP:  83;

SISSETON         N/A     64  64 100 SW3       29.78S
ABERDEEN       CLEAR     63  62  97 SE8       29.77S
6HR MIN TEMP:  63; 6HR MAX TEMP:  80;

MITCHELL       MOCLDY    68  63  84 SE7       29.78F
PIERRE         TSTM      66  65  96 SW24G36   29.77R FOG
6HR MIN TEMP:  71; 6HR MAX TEMP:  87; 6HR PCP:  0.05;

MOBRIDGE       CLEAR     69  63  81 SE10      29.71F
RAPID CITY     CLOUDY    68  61  78 S5        29.75S
6HR MIN TEMP:  65; 6HR MAX TEMP:  81;

$$

  *****  SOME WEATHER IN NEARBY STATES *****

CITY           SKY/WX    TMP DP  RH WIND       PRES   REMARKS
GLASGOW MT     PTCLDY    69  49  48 SE5       29.58F
6HR MIN TEMP:  68; 6HR MAX TEMP:  93;

GREAT FALLS MT MOCLDY    66  47  50 CALM      29.77R
6HR MIN TEMP:  63; 6HR MAX TEMP:  87;

CHEYENNE WY    CLOUDY    62  51  67 W9        29.97F
6HR MIN TEMP:  62; 6HR MAX TEMP:  74;

SCOTTSBLUFF NE MOCLDY    67  58  72 E7        29.84S
6HR MIN TEMP:  66; 6HR MAX TEMP:  83; 6HR PCP: TRACE;

OMAHA NE       MOCLDY    76  64  66 SE7       29.81R
6HR MIN TEMP:  76; 6HR MAX TEMP:  86;

DES MOINES IA  FAIR      73  66  78 SE3       29.82S
6HR MIN TEMP:  72; 6HR MAX TEMP:  84;

DAVENPORT IA   FAIR      62  59  90 CALM      29.83S
6HR MIN TEMP:  61; 6HR MAX TEMP:  80;

CHICAGO IL     FAIR      70  62  76 W6        29.79R
6HR MIN TEMP:  69; 6HR MAX TEMP:  82; 6HR PCP:  0.06;

EAU CLAIRE WI  FAIR      64  64 100 CALM      29.79R
6HR MIN TEMP:  63; 6HR MAX TEMP:  72;

LA CROSSE WI   FAIR      67  64  90 SE5       29.79R
6HR MIN TEMP:  67; 6HR MAX TEMP:  79;

$$

  *****  SOME NATIONAL WEATHER *****

CITY           SKY/WX    TMP DP  RH WIND       PRES   REMARKS



USA.gov is the U.S. government's official web portal to all federal, state and local government web resources and services.